PIMOHWEATHER Station Historical Data
Daily Summary for May 09, 2020 Units:  Metric    English   Both
Daily Weekly Monthly Yearly
  High: Low: Average:
Temperature: 38.0 °C 25.0 °C 31.9 °C
Dew Point: 28.0 °C 24.0 °C 26.2 °C
Humidity: 99% 55% 74%
Wind Speed: 36km/h 0km/h 8.8km/h
Wind Gust: 44km/h - -
Wind- - South
Pressure: 1009.5 hPa 1005.1 hPa -
Precipitation: 16.76 mm    
 
 
Tabular Data for May 09, 2020
Time Temperature Dew Point Pressure Wind Wind Speed Wind Gust Humidity Rainfall Rate (Hourly) solar
00:04 31.0 °C 27.0 °C 1007.8 hPa SSE 8 km/h 8 km/h 79% 0.00 mm 0.00 W/m2
00:09 31.0 °C 26.0 °C 1008.1 hPa SE 8 km/h 12 km/h 78% 0.00 mm 0.00 W/m2
00:14 31.0 °C 27.0 °C 1007.8 hPa SSE 6 km/h 8 km/h 79% 0.00 mm 0.00 W/m2
00:19 31.0 °C 27.0 °C 1007.8 hPa SE 9 km/h 12 km/h 79% 0.00 mm 0.00 W/m2
00:24 31.0 °C 27.0 °C 1007.5 hPa SSE 8 km/h 8 km/h 79% 0.00 mm 0.00 W/m2
00:29 31.0 °C 27.0 °C 1007.5 hPa SE 6 km/h 8 km/h 79% 0.00 mm 0.00 W/m2
00:34 31.0 °C 27.0 °C 1007.5 hPa SSE 10 km/h 12 km/h 79% 0.00 mm 0.00 W/m2
00:39 31.0 °C 27.0 °C 1007.5 hPa SSW 6 km/h 8 km/h 79% 0.00 mm 0.00 W/m2
00:44 31.0 °C 27.0 °C 1007.5 hPa South 6 km/h 8 km/h 79% 0.00 mm 0.00 W/m2
00:49 31.0 °C 27.0 °C 1007.8 hPa SSE 6 km/h 12 km/h 80% 0.00 mm 0.00 W/m2
00:54 31.0 °C 27.0 °C 1007.8 hPa SSE 7 km/h 8 km/h 80% 0.00 mm 0.00 W/m2
00:59 31.0 °C 27.0 °C 1007.5 hPa SSE 7 km/h 8 km/h 80% 0.00 mm 0.00 W/m2
01:04 31.0 °C 27.0 °C 1007.5 hPa South 2 km/h 4 km/h 80% 0.00 mm 0.00 W/m2
01:09 31.0 °C 27.0 °C 1007.5 hPa South 3 km/h 4 km/h 80% 0.00 mm 0.00 W/m2
01:14 31.0 °C 27.0 °C 1007.5 hPa WNW 2 km/h 4 km/h 81% 0.00 mm 0.00 W/m2
01:19 30.0 °C 27.0 °C 1007.5 hPa WNW 4 km/h 8 km/h 82% 0.00 mm 0.00 W/m2
01:24 31.0 °C 27.0 °C 1007.1 hPa Calm     82% 0.00 mm 0.00 W/m2
01:29 31.0 °C 27.0 °C 1007.5 hPa North 9 km/h 12 km/h 81% 0.00 mm 0.00 W/m2
01:34 30.0 °C 26.0 °C 1007.5 hPa North 8 km/h 12 km/h 80% 0.00 mm 0.00 W/m2
01:39 30.0 °C 26.0 °C 1007.5 hPa NNE 7 km/h 8 km/h 79% 0.00 mm 0.00 W/m2
01:44 30.0 °C 26.0 °C 1007.1 hPa NW 8 km/h 8 km/h 79% 0.00 mm 0.00 W/m2
01:49 30.0 °C 26.0 °C 1007.1 hPa North 8 km/h 12 km/h 78% 0.00 mm 0.00 W/m2
01:54 30.0 °C 26.0 °C 1007.1 hPa North 10 km/h 12 km/h 77% 0.00 mm 0.00 W/m2
01:59 30.0 °C 26.0 °C 1007.1 hPa North 10 km/h 12 km/h 77% 0.00 mm 0.00 W/m2
02:04 30.0 °C 26.0 °C 1007.1 hPa North 8 km/h 12 km/h 77% 0.00 mm 0.00 W/m2
02:09 30.0 °C 26.0 °C 1007.1 hPa NNW 5 km/h 8 km/h 76% 0.00 mm 0.00 W/m2
02:14 30.0 °C 26.0 °C 1007.1 hPa North 11 km/h 12 km/h 76% 0.00 mm 0.00 W/m2
02:19 31.0 °C 26.0 °C 1007.1 hPa NNE 6 km/h 8 km/h 76% 0.00 mm 0.00 W/m2
02:24 31.0 °C 26.0 °C 1007.1 hPa North 9 km/h 12 km/h 75% 0.00 mm 0.00 W/m2
02:29 31.0 °C 26.0 °C 1007.1 hPa North 6 km/h 8 km/h 75% 0.00 mm 0.00 W/m2
02:34 31.0 °C 26.0 °C 1006.8 hPa NNE 10 km/h 12 km/h 75% 0.00 mm 0.00 W/m2
02:39 31.0 °C 26.0 °C 1006.8 hPa NNE 5 km/h 8 km/h 75% 0.00 mm 0.00 W/m2
02:44 31.0 °C 26.0 °C 1007.1 hPa NE 6 km/h 12 km/h 75% 0.00 mm 0.00 W/m2
02:49 30.0 °C 26.0 °C 1006.8 hPa NNE 10 km/h 12 km/h 76% 0.00 mm 0.00 W/m2
02:54 30.0 °C 26.0 °C 1006.8 hPa NNE 10 km/h 12 km/h 76% 0.00 mm 0.00 W/m2
02:59 30.0 °C 26.0 °C 1006.8 hPa NNE 8 km/h 12 km/h 76% 0.00 mm 0.00 W/m2
03:04 30.0 °C 26.0 °C 1006.8 hPa NNE 5 km/h 8 km/h 76% 0.00 mm 0.00 W/m2
03:09 30.0 °C 26.0 °C 1006.8 hPa North 5 km/h 8 km/h 76% 0.00 mm 0.00 W/m2
03:14 30.0 °C 26.0 °C 1006.8 hPa NNE 5 km/h 8 km/h 76% 0.00 mm 0.00 W/m2
03:19 30.0 °C 26.0 °C 1006.8 hPa NNW 5 km/h 8 km/h 76% 0.00 mm 0.00 W/m2
03:24 30.0 °C 26.0 °C 1006.8 hPa NNE 4 km/h 4 km/h 76% 0.00 mm 0.00 W/m2
03:29 30.0 °C 26.0 °C 1006.8 hPa North 4 km/h 8 km/h 76% 0.00 mm 0.00 W/m2
03:34 30.0 °C 26.0 °C 1006.8 hPa NNE 3 km/h 4 km/h 76% 0.00 mm 0.00 W/m2
03:39 30.0 °C 26.0 °C 1006.8 hPa NE 4 km/h 8 km/h 75% 0.00 mm 0.00 W/m2
03:44 30.0 °C 26.0 °C 1006.8 hPa Calm   4 km/h 75% 0.00 mm 0.00 W/m2
03:49 30.0 °C 26.0 °C 1006.8 hPa North 3 km/h 4 km/h 76% 0.00 mm 0.00 W/m2
03:54 31.0 °C 26.0 °C 1006.4 hPa SSE 1 km/h 4 km/h 75% 0.00 mm 0.00 W/m2
03:59 31.0 °C 26.0 °C 1006.8 hPa Calm   4 km/h 75% 0.00 mm 0.00 W/m2
04:04 31.0 °C 26.0 °C 1006.8 hPa NNE 5 km/h 8 km/h 76% 0.00 mm 0.00 W/m2
04:09 30.0 °C 26.0 °C 1006.8 hPa North 3 km/h 4 km/h 76% 0.00 mm 0.00 W/m2
04:14 30.0 °C 26.0 °C 1006.8 hPa Calm     76% 0.00 mm 0.00 W/m2
04:19 30.0 °C 26.0 °C 1006.8 hPa Calm     76% 0.00 mm 0.00 W/m2
04:24 31.0 °C 26.0 °C 1006.8 hPa Calm     76% 0.00 mm 0.00 W/m2
04:29 31.0 °C 26.0 °C 1006.8 hPa NE 3 km/h 4 km/h 75% 0.00 mm 0.00 W/m2
04:34 31.0 °C 26.0 °C 1006.8 hPa SE 1 km/h 4 km/h 75% 0.00 mm 0.00 W/m2
04:39 31.0 °C 26.0 °C 1006.8 hPa ESE 4 km/h 8 km/h 76% 0.00 mm 0.00 W/m2
04:44 31.0 °C 26.0 °C 1007.1 hPa East 3 km/h 4 km/h 76% 0.00 mm 0.00 W/m2
04:49 31.0 °C 26.0 °C 1007.1 hPa SE 3 km/h 4 km/h 75% 0.00 mm 0.00 W/m2
04:54 31.0 °C 26.0 °C 1007.1 hPa ESE 1 km/h 4 km/h 75% 0.00 mm 0.00 W/m2
04:59 31.0 °C 26.0 °C 1007.1 hPa SE 5 km/h 8 km/h 76% 0.00 mm 0.00 W/m2
05:04 30.0 °C 26.0 °C 1007.1 hPa ESE 6 km/h 8 km/h 76% 0.00 mm 0.00 W/m2
05:09 31.0 °C 26.0 °C 1007.1 hPa SSE 13 km/h 16 km/h 77% 0.00 mm 0.00 W/m2
05:14 30.0 °C 26.0 °C 1007.1 hPa SE 14 km/h 16 km/h 77% 0.00 mm 0.00 W/m2
05:19 30.0 °C 25.0 °C 1007.1 hPa SE 15 km/h 20 km/h 78% 0.00 mm 0.00 W/m2
05:24 30.0 °C 25.0 °C 1007.1 hPa SE 10 km/h 12 km/h 77% 0.00 mm 0.00 W/m2
05:29 30.0 °C 25.0 °C 1007.1 hPa SE 10 km/h 12 km/h 77% 0.00 mm 0.18 W/m2
05:34 30.0 °C 25.0 °C 1007.1 hPa SE 12 km/h 12 km/h 77% 0.00 mm 2.19 W/m2
05:39 30.0 °C 25.0 °C 1007.5 hPa SE 10 km/h 12 km/h 77% 0.00 mm 5.39 W/m2
05:44 30.0 °C 25.0 °C 1007.5 hPa SE 10 km/h 12 km/h 77% 0.00 mm 9.13 W/m2
05:49 30.0 °C 25.0 °C 1007.5 hPa SE 12 km/h 12 km/h 77% 0.00 mm 13.73 W/m2
05:54 30.0 °C 25.0 °C 1007.5 hPa SE 9 km/h 12 km/h 77% 0.00 mm 20.34 W/m2
05:59 30.0 °C 25.0 °C 1007.5 hPa SE 10 km/h 16 km/h 77% 0.00 mm 25.71 W/m2
06:04 30.0 °C 25.0 °C 1007.5 hPa SE 8 km/h 12 km/h 77% 0.00 mm 33.80 W/m2
06:09 30.0 °C 25.0 °C 1007.5 hPa SE 6 km/h 8 km/h 77% 0.00 mm 44.46 W/m2
06:14 30.0 °C 25.0 °C 1007.5 hPa SE 10 km/h 16 km/h 77% 0.00 mm 54.68 W/m2
06:19 30.0 °C 25.0 °C 1007.8 hPa SE 12 km/h 12 km/h 77% 0.00 mm 63.44 W/m2
06:24 30.0 °C 25.0 °C 1007.5 hPa SE 12 km/h 16 km/h 77% 0.00 mm 109.09 W/m2
06:29 30.0 °C 25.0 °C 1007.8 hPa SE 11 km/h 12 km/h 76% 0.00 mm 119.52 W/m2
06:34 30.0 °C 25.0 °C 1007.5 hPa ESE 10 km/h 12 km/h 76% 0.00 mm 142.42 W/m2
06:39 31.0 °C 26.0 °C 1007.8 hPa SE 5 km/h 8 km/h 75% 0.00 mm 156.78 W/m2
06:44 31.0 °C 26.0 °C 1007.8 hPa SE 10 km/h 12 km/h 74% 0.00 mm 167.60 W/m2
06:49 31.0 °C 25.0 °C 1007.8 hPa SE 12 km/h 16 km/h 74% 0.00 mm 185.80 W/m2
06:54 31.0 °C 26.0 °C 1008.1 hPa SE 8 km/h 12 km/h 74% 0.00 mm 200.55 W/m2
06:59 31.0 °C 26.0 °C 1008.1 hPa ESE 10 km/h 12 km/h 73% 0.00 mm 206.55 W/m2
07:04 31.0 °C 26.0 °C 1008.5 hPa SE 12 km/h 16 km/h 73% 0.00 mm 227.20 W/m2
07:09 31.0 °C 26.0 °C 1008.5 hPa SE 9 km/h 12 km/h 73% 0.00 mm 235.17 W/m2
07:14 32.0 °C 26.0 °C 1008.5 hPa ESE 6 km/h 12 km/h 71% 0.00 mm 246.28 W/m2
07:19 32.0 °C 26.0 °C 1008.5 hPa ENE 8 km/h 8 km/h 71% 0.00 mm 257.39 W/m2
07:24 32.0 °C 26.0 °C 1008.5 hPa SE 13 km/h 16 km/h 73% 0.00 mm 264.78 W/m2
07:29 32.0 °C 26.0 °C 1008.5 hPa ESE 10 km/h 12 km/h 72% 0.00 mm 269.45 W/m2
07:34 32.0 °C 26.0 °C 1008.5 hPa ESE 12 km/h 16 km/h 71% 0.00 mm 274.98 W/m2
07:39 33.0 °C 26.0 °C 1008.5 hPa SE 7 km/h 8 km/h 71% 0.00 mm 290.52 W/m2
07:44 33.0 °C 26.0 °C 1008.5 hPa SE 14 km/h 16 km/h 70% 0.00 mm 299.57 W/m2
07:49 32.0 °C 26.0 °C 1008.5 hPa ESE 10 km/h 12 km/h 69% 0.00 mm 305.42 W/m2
07:54 33.0 °C 26.0 °C 1008.5 hPa ESE 8 km/h 8 km/h 69% 0.00 mm 320.32 W/m2
07:59 33.0 °C 26.0 °C 1008.8 hPa NW 9 km/h 12 km/h 67% 0.00 mm 328.00 W/m2
08:04 33.0 °C 26.0 °C 1008.5 hPa SE 15 km/h 16 km/h 68% 0.00 mm 313.03 W/m2
08:09 33.0 °C 26.0 °C 1008.5 hPa SE 14 km/h 16 km/h 69% 0.00 mm 324.11 W/m2
08:14 33.0 °C 26.0 °C 1008.5 hPa SE 14 km/h 16 km/h 69% 0.00 mm 292.21 W/m2
08:19 32.0 °C 26.0 °C 1008.5 hPa SSE 12 km/h 16 km/h 69% 0.00 mm 288.17 W/m2
08:24 33.0 °C 26.0 °C 1008.8 hPa SE 10 km/h 12 km/h 69% 0.00 mm 341.14 W/m2
08:29 33.0 °C 26.0 °C 1008.8 hPa SE 9 km/h 12 km/h 69% 0.00 mm 367.13 W/m2
08:34 33.0 °C 26.0 °C 1008.8 hPa SE 9 km/h 12 km/h 69% 0.00 mm 380.19 W/m2
08:39 33.0 °C 26.0 °C 1008.8 hPa SSE 9 km/h 12 km/h 68% 0.00 mm 388.80 W/m2
08:44 34.0 °C 26.0 °C 1008.8 hPa SSE 5 km/h 8 km/h 67% 0.00 mm 398.44 W/m2
08:49 34.0 °C 26.0 °C 1008.8 hPa SE 10 km/h 12 km/h 67% 0.00 mm 439.62 W/m2
08:54 34.0 °C 26.0 °C 1008.5 hPa SE 8 km/h 8 km/h 67% 0.00 mm 344.76 W/m2
08:59 33.0 °C 26.0 °C 1008.5 hPa ESE 5 km/h 8 km/h 66% 0.00 mm 371.24 W/m2
09:04 34.0 °C 26.0 °C 1008.8 hPa ESE 5 km/h 8 km/h 65% 0.00 mm 456.60 W/m2
09:09 34.0 °C 26.0 °C 1008.5 hPa NNW 6 km/h 8 km/h 64% 0.00 mm 461.81 W/m2
09:14 34.0 °C 26.0 °C 1008.5 hPa WNW 8 km/h 12 km/h 66% 0.00 mm 387.90 W/m2
09:19 33.0 °C 26.0 °C 1008.5 hPa NW 6 km/h 8 km/h 67% 0.00 mm 353.79 W/m2
09:24 33.0 °C 26.0 °C 1008.5 hPa SSE 5 km/h 8 km/h 65% 0.00 mm 189.20 W/m2
09:29 34.0 °C 26.0 °C 1008.5 hPa WNW 5 km/h 8 km/h 67% 0.00 mm 210.73 W/m2
09:34 33.0 °C 26.0 °C 1008.5 hPa WNW 12 km/h 16 km/h 69% 0.00 mm 373.98 W/m2
09:39 33.0 °C 26.0 °C 1008.5 hPa WNW 8 km/h 12 km/h 68% 0.00 mm 209.90 W/m2
09:44 33.0 °C 26.0 °C 1008.1 hPa WNW 12 km/h 16 km/h 69% 0.00 mm 276.70 W/m2
09:49 33.0 °C 26.0 °C 1008.5 hPa WNW 14 km/h 16 km/h 69% 0.00 mm 295.39 W/m2
09:54 33.0 °C 26.0 °C 1008.5 hPa WSW 6 km/h 8 km/h 69% 0.00 mm 349.97 W/m2
09:59 34.0 °C 26.0 °C 1008.5 hPa SSW 12 km/h 16 km/h 67% 0.00 mm 496.39 W/m2
10:04 34.0 °C 27.0 °C 1008.5 hPa East 8 km/h 12 km/h 66% 0.00 mm 489.88 W/m2
10:09 34.0 °C 27.0 °C 1008.5 hPa SE 6 km/h 8 km/h 65% 0.00 mm 508.96 W/m2
10:14 34.0 °C 27.0 °C 1008.5 hPa WSW 14 km/h 20 km/h 66% 0.00 mm 482.93 W/m2
10:19 34.0 °C 27.0 °C 1008.5 hPa South 10 km/h 12 km/h 66% 0.00 mm 496.31 W/m2
10:24 35.0 °C 27.0 °C 1008.5 hPa South 11 km/h 12 km/h 65% 0.00 mm 520.27 W/m2
10:29 35.0 °C 27.0 °C 1008.5 hPa SW 10 km/h 16 km/h 65% 0.00 mm 509.06 W/m2
10:34 35.0 °C 27.0 °C 1008.1 hPa South 8 km/h 12 km/h 64% 0.00 mm 490.86 W/m2
10:39 35.0 °C 27.0 °C 1008.5 hPa ENE 10 km/h 12 km/h 65% 0.00 mm 507.84 W/m2
10:44 35.0 °C 27.0 °C 1008.1 hPa SSW 9 km/h 12 km/h 65% 0.00 mm 493.55 W/m2
10:49 35.0 °C 27.0 °C 1008.1 hPa SSW 9 km/h 12 km/h 64% 0.00 mm 503.46 W/m2
10:54 35.0 °C 27.0 °C 1008.1 hPa South 15 km/h 20 km/h 66% 0.00 mm 528.37 W/m2
10:59 35.0 °C 27.0 °C 1008.1 hPa South 14 km/h 20 km/h 66% 0.00 mm 515.45 W/m2
11:04 36.0 °C 27.0 °C 1008.1 hPa SSW 10 km/h 12 km/h 64% 0.00 mm 530.81 W/m2
11:09 35.0 °C 27.0 °C 1008.1 hPa South 15 km/h 20 km/h 66% 0.00 mm 538.05 W/m2
11:14 35.0 °C 27.0 °C 1007.8 hPa SSW 13 km/h 16 km/h 67% 0.00 mm 553.08 W/m2
11:19 34.0 °C 27.0 °C 1008.1 hPa South 17 km/h 20 km/h 66% 0.00 mm 566.05 W/m2
11:24 35.0 °C 27.0 °C 1008.1 hPa SSW 13 km/h 16 km/h 66% 0.00 mm 567.61 W/m2
11:29 35.0 °C 27.0 °C 1007.8 hPa South 14 km/h 20 km/h 65% 0.00 mm 512.09 W/m2
11:34 35.0 °C 27.0 °C 1007.8 hPa South 12 km/h 16 km/h 64% 0.00 mm 513.76 W/m2
11:39 35.0 °C 27.0 °C 1007.8 hPa South 10 km/h 16 km/h 64% 0.00 mm 505.19 W/m2
11:44 35.0 °C 27.0 °C 1007.8 hPa SSW 15 km/h 16 km/h 63% 0.00 mm 516.08 W/m2
11:49 36.0 °C 27.0 °C 1007.5 hPa SW 9 km/h 12 km/h 63% 0.00 mm 516.47 W/m2
11:54 36.0 °C 27.0 °C 1007.5 hPa SW 9 km/h 12 km/h 62% 0.00 mm 521.00 W/m2
11:59 36.0 °C 27.0 °C 1007.5 hPa WSW 9 km/h 12 km/h 61% 0.00 mm 527.48 W/m2
12:04 36.0 °C 27.0 °C 1007.5 hPa WSW 9 km/h 12 km/h 61% 0.00 mm 527.34 W/m2
12:09 36.0 °C 27.0 °C 1007.1 hPa SSW 11 km/h 16 km/h 61% 0.00 mm 517.40 W/m2
12:14 36.0 °C 27.0 °C 1007.5 hPa SSW 13 km/h 16 km/h 60% 0.00 mm 530.10 W/m2
12:19 36.0 °C 27.0 °C 1007.1 hPa SSE 13 km/h 16 km/h 60% 0.00 mm 529.22 W/m2
12:24 36.0 °C 27.0 °C 1007.1 hPa SSW 10 km/h 16 km/h 60% 0.00 mm 526.07 W/m2
12:29 36.0 °C 27.0 °C 1007.1 hPa SSW 14 km/h 16 km/h 61% 0.00 mm 533.14 W/m2
12:34 36.0 °C 27.0 °C 1007.1 hPa SSW 10 km/h 12 km/h 59% 0.00 mm 546.28 W/m2
12:39 36.0 °C 27.0 °C 1007.1 hPa SW 13 km/h 16 km/h 59% 0.00 mm 539.42 W/m2
12:44 36.0 °C 27.0 °C 1006.8 hPa SSW 15 km/h 16 km/h 60% 0.00 mm 517.72 W/m2
12:49 36.0 °C 27.0 °C 1006.8 hPa SSW 10 km/h 20 km/h 59% 0.00 mm 525.77 W/m2
12:54 36.0 °C 27.0 °C 1006.8 hPa WSW 10 km/h 16 km/h 59% 0.00 mm 527.41 W/m2
12:59 36.0 °C 27.0 °C 1006.8 hPa SSW 9 km/h 16 km/h 59% 0.00 mm 540.43 W/m2
13:04 37.0 °C 27.0 °C 1006.8 hPa South 6 km/h 8 km/h 58% 0.00 mm 536.24 W/m2
13:09 37.0 °C 27.0 °C 1006.8 hPa West 9 km/h 12 km/h 57% 0.00 mm 540.40 W/m2
13:14 37.0 °C 27.0 °C 1006.8 hPa South 14 km/h 20 km/h 60% 0.00 mm 525.89 W/m2
13:19 36.0 °C 27.0 °C 1006.8 hPa SSW 14 km/h 20 km/h 61% 0.00 mm 523.03 W/m2
13:24 36.0 °C 27.0 °C 1006.8 hPa SW 15 km/h 20 km/h 61% 0.00 mm 513.95 W/m2
13:29 36.0 °C 27.0 °C 1006.4 hPa South 12 km/h 16 km/h 59% 0.00 mm 512.05 W/m2
13:34 37.0 °C 27.0 °C 1006.4 hPa South 11 km/h 12 km/h 59% 0.00 mm 512.80 W/m2
13:39 37.0 °C 27.0 °C 1006.4 hPa South 13 km/h 16 km/h 58% 0.00 mm 512.46 W/m2
13:44 37.0 °C 27.0 °C 1006.1 hPa South 14 km/h 16 km/h 58% 0.00 mm 516.94 W/m2
13:49 37.0 °C 27.0 °C 1006.1 hPa SSW 13 km/h 16 km/h 58% 0.00 mm 503.80 W/m2
13:54 37.0 °C 27.0 °C 1006.1 hPa South 14 km/h 20 km/h 60% 0.00 mm 500.35 W/m2
13:59 37.0 °C 27.0 °C 1006.1 hPa WSW 9 km/h 12 km/h 60% 0.00 mm 495.43 W/m2
14:04 37.0 °C 27.0 °C 1006.1 hPa SSW 12 km/h 16 km/h 58% 0.00 mm 493.79 W/m2
14:09 37.0 °C 27.0 °C 1006.1 hPa South 15 km/h 20 km/h 58% 0.00 mm 490.96 W/m2
14:14 37.0 °C 27.0 °C 1006.1 hPa South 11 km/h 16 km/h 59% 0.00 mm 486.06 W/m2
14:19 37.0 °C 27.0 °C 1005.8 hPa SSW 12 km/h 16 km/h 58% 0.00 mm 486.75 W/m2
14:24 37.0 °C 27.0 °C 1005.8 hPa SW 13 km/h 20 km/h 58% 0.00 mm 477.08 W/m2
14:29 37.0 °C 27.0 °C 1005.8 hPa South 7 km/h 12 km/h 57% 0.00 mm 486.87 W/m2
14:34 37.0 °C 28.0 °C 1005.8 hPa South 11 km/h 16 km/h 57% 0.00 mm 485.74 W/m2
14:39 37.0 °C 27.0 °C 1005.8 hPa South 14 km/h 16 km/h 59% 0.00 mm 476.42 W/m2
14:44 37.0 °C 27.0 °C 1005.8 hPa SSE 14 km/h 20 km/h 59% 0.00 mm 464.09 W/m2
14:49 37.0 °C 27.0 °C 1005.8 hPa South 15 km/h 20 km/h 58% 0.00 mm 459.03 W/m2
14:54 37.0 °C 27.0 °C 1005.8 hPa South 15 km/h 16 km/h 59% 0.00 mm 464.31 W/m2
14:59 37.0 °C 28.0 °C 1005.4 hPa South 13 km/h 16 km/h 59% 0.00 mm 460.81 W/m2
15:04 38.0 °C 28.0 °C 1005.4 hPa South 8 km/h 8 km/h 58% 0.00 mm 451.49 W/m2
15:09 38.0 °C 28.0 °C 1005.4 hPa South 13 km/h 16 km/h 57% 0.00 mm 456.68 W/m2
15:14 38.0 °C 28.0 °C 1005.1 hPa South 13 km/h 20 km/h 57% 0.00 mm 436.74 W/m2
15:19 37.0 °C 27.0 °C 1005.4 hPa SSW 9 km/h 12 km/h 57% 0.00 mm 427.27 W/m2
15:24 38.0 °C 27.0 °C 1005.4 hPa NW 5 km/h 8 km/h 56% 0.00 mm 425.02 W/m2
15:29 38.0 °C 27.0 °C 1005.4 hPa South 8 km/h 12 km/h 56% 0.00 mm 415.62 W/m2
15:34 37.0 °C 27.0 °C 1005.1 hPa South 10 km/h 12 km/h 57% 0.00 mm 413.59 W/m2
15:39 38.0 °C 27.0 °C 1005.4 hPa WNW 5 km/h 12 km/h 56% 0.00 mm 410.14 W/m2
15:44 38.0 °C 27.0 °C 1005.1 hPa South 9 km/h 12 km/h 56% 0.00 mm 412.59 W/m2
15:49 38.0 °C 27.0 °C 1005.4 hPa South 11 km/h 16 km/h 56% 0.00 mm 410.73 W/m2
15:54 38.0 °C 27.0 °C 1005.8 hPa South 10 km/h 12 km/h 55% 0.00 mm 393.31 W/m2
15:59 38.0 °C 27.0 °C 1005.4 hPa South 8 km/h 12 km/h 56% 0.00 mm 391.28 W/m2
16:04 38.0 °C 27.0 °C 1005.4 hPa South 9 km/h 12 km/h 56% 0.00 mm 387.19 W/m2
16:09 37.0 °C 27.0 °C 1005.4 hPa South 13 km/h 16 km/h 56% 0.00 mm 380.80 W/m2
16:14 37.0 °C 27.0 °C 1005.4 hPa South 12 km/h 16 km/h 56% 0.00 mm 376.91 W/m2
16:19 37.0 °C 26.0 °C 1005.4 hPa SSE 15 km/h 20 km/h 56% 0.00 mm 373.29 W/m2
16:24 37.0 °C 26.0 °C 1005.4 hPa South 14 km/h 16 km/h 56% 0.00 mm 344.22 W/m2
16:29 37.0 °C 27.0 °C 1005.4 hPa South 9 km/h 12 km/h 56% 0.00 mm 325.02 W/m2
16:34 37.0 °C 27.0 °C 1005.4 hPa SSE 12 km/h 16 km/h 56% 0.00 mm 305.79 W/m2
16:39 36.0 °C 26.0 °C 1005.4 hPa SSW 15 km/h 20 km/h 58% 0.00 mm 181.20 W/m2
16:44 36.0 °C 27.0 °C 1005.4 hPa South 13 km/h 16 km/h 60% 0.00 mm 291.42 W/m2
16:49 36.0 °C 27.0 °C 1005.4 hPa South 12 km/h 16 km/h 62% 0.00 mm 297.00 W/m2
16:54 36.0 °C 27.0 °C 1005.4 hPa South 14 km/h 16 km/h 63% 0.00 mm 289.71 W/m2
16:59 35.0 °C 28.0 °C 1005.8 hPa South 15 km/h 16 km/h 69% 0.00 mm 230.43 W/m2
17:04 34.0 °C 28.0 °C 1005.8 hPa South 13 km/h 16 km/h 70% 0.00 mm 118.88 W/m2
17:09 34.0 °C 28.0 °C 1005.8 hPa South 9 km/h 12 km/h 70% 0.00 mm 69.84 W/m2
17:14 34.0 °C 28.0 °C 1005.8 hPa South 11 km/h 16 km/h 71% 0.00 mm 55.33 W/m2
17:19 34.0 °C 28.0 °C 1005.4 hPa SSW 14 km/h 16 km/h 72% 0.00 mm 52.11 W/m2
17:24 34.0 °C 28.0 °C 1005.4 hPa South 10 km/h 12 km/h 71% 0.00 mm 56.23 W/m2
17:29 33.0 °C 27.0 °C 1005.8 hPa South 15 km/h 24 km/h 70% 0.00 mm 49.63 W/m2
17:34 34.0 °C 27.0 °C 1006.4 hPa South 13 km/h 16 km/h 70% 0.00 mm 31.73 W/m2
17:39 34.0 °C 28.0 °C 1006.4 hPa South 10 km/h 16 km/h 72% 0.00 mm 20.95 W/m2
17:44 33.0 °C 28.0 °C 1006.8 hPa South 12 km/h 16 km/h 74% 0.00 mm 12.32 W/m2
17:49 33.0 °C 28.0 °C 1006.8 hPa South 13 km/h 16 km/h 76% 0.00 mm 8.25 W/m2
17:54 33.0 °C 28.0 °C 1006.8 hPa SSE 18 km/h 20 km/h 76% 0.00 mm 6.87 W/m2
17:59 33.0 °C 28.0 °C 1006.8 hPa SSE 16 km/h 20 km/h 76% 0.00 mm 4.64 W/m2
18:04 33.0 °C 28.0 °C 1006.8 hPa South 14 km/h 20 km/h 77% 0.00 mm 2.26 W/m2
18:09 33.0 °C 28.0 °C 1007.1 hPa South 10 km/h 12 km/h 77% 0.00 mm 0.62 W/m2
18:14 33.0 °C 28.0 °C 1007.1 hPa South 10 km/h 12 km/h 78% 0.00 mm 0.00 W/m2
18:19 33.0 °C 28.0 °C 1007.1 hPa South 15 km/h 20 km/h 78% 0.00 mm 0.00 W/m2
18:24 32.0 °C 28.0 °C 1007.1 hPa South 10 km/h 12 km/h 79% 0.00 mm 0.00 W/m2
18:29 32.0 °C 28.0 °C 1007.1 hPa SSE 10 km/h 12 km/h 79% 0.00 mm 0.00 W/m2
18:34 32.0 °C 28.0 °C 1007.1 hPa South 10 km/h 12 km/h 79% 0.00 mm 0.00 W/m2
18:39 33.0 °C 28.0 °C 1007.5 hPa SSE 9 km/h 12 km/h 78% 0.00 mm 0.00 W/m2
18:44 32.0 °C 28.0 °C 1007.5 hPa South 8 km/h 12 km/h 78% 0.00 mm 0.00 W/m2
18:49 33.0 °C 28.0 °C 1007.8 hPa SSW 15 km/h 24 km/h 77% 0.00 mm 0.00 W/m2
18:54 31.0 °C 27.0 °C 1008.1 hPa North 27 km/h 36 km/h 78% 0.00 mm 0.00 W/m2
18:59 30.0 °C 26.0 °C 1008.5 hPa North 30 km/h 40 km/h 88% 5.33 mm 0.00 W/m2
19:04 27.0 °C 25.0 °C 1009.1 hPa North 32 km/h 36 km/h 95% 23.37 mm 0.00 W/m2
19:09 26.0 °C 26.0 °C 1009.1 hPa NNW 28 km/h 36 km/h 97% 36.07 mm 0.00 W/m2
19:14 26.0 °C 25.0 °C 1009.1 hPa NNW 36 km/h 44 km/h 98% 59.44 mm 0.00 W/m2
19:19 25.0 °C 24.0 °C 1008.8 hPa NNW 36 km/h 40 km/h 99% 70.10 mm 0.00 W/m2
19:24 25.0 °C 25.0 °C 1009.1 hPa WNW 8 km/h 12 km/h 99% 57.66 mm 0.00 W/m2
19:29 25.0 °C 25.0 °C 1009.1 hPa West 5 km/h 8 km/h 99% 18.03 mm 0.00 W/m2
19:34 25.0 °C 24.0 °C 1009.1 hPa SSW 8 km/h 12 km/h 98% 1.78 mm 0.00 W/m2
19:39 25.0 °C 24.0 °C 1009.1 hPa South 9 km/h 12 km/h 98% 0.00 mm 0.00 W/m2
19:44 25.0 °C 24.0 °C 1008.8 hPa NW 5 km/h 8 km/h 98% 0.00 mm 0.00 W/m2
19:49 25.0 °C 24.0 °C 1008.8 hPa Calm     98% 0.00 mm 0.00 W/m2
19:54 25.0 °C 24.0 °C 1008.8 hPa SE 6 km/h 8 km/h 98% 0.00 mm 0.00 W/m2
19:59 25.0 °C 25.0 °C 1008.8 hPa SE 5 km/h 12 km/h 97% 0.00 mm 0.00 W/m2
20:04 25.0 °C 24.0 °C 1008.8 hPa SE 6 km/h 8 km/h 96% 0.00 mm 0.00 W/m2
20:09 25.0 °C 25.0 °C 1008.8 hPa Calm     97% 0.00 mm 0.00 W/m2
20:14 25.0 °C 25.0 °C 1008.5 hPa Calm     97% 0.00 mm 0.00 W/m2
20:19 25.0 °C 25.0 °C 1008.5 hPa ESE 5 km/h 8 km/h 97% 0.00 mm 0.00 W/m2
20:24 25.0 °C 25.0 °C 1008.5 hPa South 1 km/h 4 km/h 97% 0.00 mm 0.00 W/m2
20:29 25.0 °C 25.0 °C 1008.5 hPa ENE 4 km/h 8 km/h 97% 0.00 mm 0.00 W/m2
20:34 26.0 °C 25.0 °C 1008.8 hPa ESE 3 km/h 4 km/h 97% 0.00 mm 0.00 W/m2
20:39 25.0 °C 25.0 °C 1008.8 hPa NNW 6 km/h 8 km/h 96% 0.00 mm 0.00 W/m2
20:44 26.0 °C 25.0 °C 1008.8 hPa WNW 2 km/h 4 km/h 96% 0.00 mm 0.00 W/m2
20:49 26.0 °C 25.0 °C 1008.8 hPa North 6 km/h 8 km/h 96% 0.00 mm 0.00 W/m2
20:54 26.0 °C 25.0 °C 1009.1 hPa North 7 km/h 8 km/h 95% 0.00 mm 0.00 W/m2
20:59 26.0 °C 25.0 °C 1009.1 hPa NNW 10 km/h 12 km/h 94% 0.00 mm 0.00 W/m2
21:04 26.0 °C 25.0 °C 1009.1 hPa North 5 km/h 8 km/h 93% 0.00 mm 0.00 W/m2
21:09 27.0 °C 25.0 °C 1009.1 hPa North 6 km/h 8 km/h 92% 0.00 mm 0.00 W/m2
21:14 27.0 °C 25.0 °C 1009.1 hPa North 6 km/h 8 km/h 91% 0.00 mm 0.00 W/m2
21:19 27.0 °C 25.0 °C 1009.5 hPa NE 5 km/h 8 km/h 91% 0.00 mm 0.00 W/m2
21:24 27.0 °C 25.0 °C 1009.5 hPa Calm     91% 0.00 mm 0.00 W/m2
21:29 27.0 °C 25.0 °C 1009.5 hPa Calm     91% 0.00 mm 0.00 W/m2
21:34 27.0 °C 25.0 °C 1009.5 hPa SSE 1 km/h 4 km/h 90% 0.00 mm 0.00 W/m2
21:39 27.0 °C 25.0 °C 1009.5 hPa Calm     89% 0.00 mm 0.00 W/m2
21:44 27.0 °C 25.0 °C 1009.1 hPa Calm     88% 0.00 mm 0.00 W/m2
21:49 27.0 °C 25.0 °C 1009.5 hPa NW 3 km/h 4 km/h 89% 0.00 mm 0.00 W/m2
21:54 27.0 °C 25.0 °C 1009.1 hPa NNW 4 km/h 4 km/h 88% 0.00 mm 0.00 W/m2
21:59 27.0 °C 25.0 °C 1009.1 hPa NNW 5 km/h 8 km/h 87% 0.00 mm 0.00 W/m2
22:04 27.0 °C 25.0 °C 1009.1 hPa NNW 6 km/h 8 km/h 86% 0.00 mm 0.00 W/m2
22:09 27.0 °C 25.0 °C 1009.5 hPa NNE 5 km/h 8 km/h 87% 0.00 mm 0.00 W/m2
22:14 27.0 °C 25.0 °C 1009.1 hPa NNE 8 km/h 12 km/h 87% 0.00 mm 0.00 W/m2
22:19 27.0 °C 25.0 °C 1009.1 hPa NE 4 km/h 4 km/h 86% 0.00 mm 0.00 W/m2
22:24 28.0 °C 25.0 °C 1009.1 hPa NNE 6 km/h 8 km/h 85% 0.00 mm 0.00 W/m2
22:29 28.0 °C 25.0 °C 1009.1 hPa Calm   4 km/h 84% 0.00 mm 0.00 W/m2
22:34 28.0 °C 25.0 °C 1009.1 hPa NNE 7 km/h 8 km/h 84% 0.00 mm 0.00 W/m2
22:39 28.0 °C 25.0 °C 1009.1 hPa NNE 3 km/h 4 km/h 83% 0.00 mm 0.00 W/m2
22:44 28.0 °C 25.0 °C 1009.1 hPa NNE 4 km/h 4 km/h 83% 0.00 mm 0.00 W/m2
22:49 28.0 °C 25.0 °C 1009.1 hPa NNE 3 km/h 4 km/h 83% 0.00 mm 0.00 W/m2
22:54 28.0 °C 25.0 °C 1009.1 hPa North 4 km/h 4 km/h 83% 0.00 mm 0.00 W/m2
22:59 28.0 °C 25.0 °C 1009.1 hPa NW 3 km/h 4 km/h 84% 0.00 mm 0.00 W/m2
23:04 28.0 °C 25.0 °C 1009.1 hPa NW 5 km/h 8 km/h 84% 0.00 mm 0.00 W/m2
23:09 28.0 °C 25.0 °C 1008.8 hPa NW 6 km/h 8 km/h 84% 0.00 mm 0.00 W/m2
23:14 28.0 °C 25.0 °C 1009.1 hPa Calm     84% 0.00 mm 0.00 W/m2
23:19 28.0 °C 25.0 °C 1009.1 hPa Calm     84% 0.00 mm 0.00 W/m2
23:24 28.0 °C 25.0 °C 1008.8 hPa WNW 2 km/h 4 km/h 84% 0.00 mm 0.00 W/m2
23:29 28.0 °C 25.0 °C 1008.8 hPa Calm     83% 0.00 mm 0.00 W/m2
23:34 28.0 °C 25.0 °C 1009.1 hPa Calm     83% 0.00 mm 0.00 W/m2
23:39 28.0 °C 25.0 °C 1009.1 hPa Calm     82% 0.00 mm 0.00 W/m2
23:44 28.0 °C 24.0 °C 1008.8 hPa Calm     82% 0.00 mm 0.00 W/m2
23:49 28.0 °C 25.0 °C 1008.8 hPa North 4 km/h 4 km/h 82% 0.00 mm 0.00 W/m2
23:54 28.0 °C 25.0 °C 1008.8 hPa North 5 km/h 8 km/h 83% 0.00 mm 0.00 W/m2
23:59 28.0 °C 25.0 °C 1008.8 hPa NW 5 km/h 8 km/h 83% 0.00 mm 0.00 W/m2
PIMOHWEATHER Philippines
Compliments of Weather Underground - 2 mb